Florala, AL

2:49 PM CDT on June 25, 2017 (GMT -0500)
Florala

Weather History for K0J4 - April, 2013

Change the Weather History Date:

Tuesday, April 2, 2013

  Actual Average (KCEW) Record (KCEW)
Temperature  
Mean Temperature 64 °F -  
Max Temperature 81 °F 75 °F 90 °F (2012)
Min Temperature 46 °F 49 °F 33 °F (2001)
Degree Days  
Heating Degree Days 2    
Growing Degree Days 14 (Base 50)    
Moisture  
Dew Point 46 °F    
Average Humidity 59    
Maximum Humidity 93    
Minimum Humidity 24    
Precipitation  
Precipitation 0.00 in - - ()
Sea Level Pressure  
Sea Level Pressure 30.09 in    
Wind  
Wind Speed 3 mph (East)    
Max Wind Speed 9 mph    
Max Gust Speed -    
Visibility 10 miles    
Events      
Averages and records for this station are not official NWS values.
T = Trace of Precipitation, MM = Missing Value Source: NWS Daily Summary

Daily Weather History Graph

Daily Weather History Graph

Search for Another Location

Airport or City:

Trip Planner

Search our weather history database for the weather conditions in past years. The results will help you decide how hot, cold, wet, or windy it might be!

Date:

Astronomy

Apr. 02, 2013 Rise Set
Actual Time 6:32 AM CDT 7:05 PM CDT
Civil Twilight 6:08 AM CDT 7:29 PM CDT
Nautical Twilight 5:39 AM CDT 7:58 PM CDT
Astronomical Twilight 5:10 AM CDT 8:27 PM CDT
Moon 12:53 AM CDT (4/2) 11:38 AM CDT (4/2)
Length of Visible Light 13h 21m
Length of Day
12h 32m
Waning Gibbous, 55% of the Moon is Illuminated
Apr 2
Waning Gibbous
Apr 2
Last Quarter
Apr 10
New
Apr 18
First Quarter
Apr 25
Full

Hourly Weather History & Observations

Time (CDT) Temp. Dew Point Humidity Pressure Visibility Wind Dir Wind Speed Gust Speed Precip Events Conditions
12:58 AM 54.0 °F 51.1 °F 90% 30.06 in 10.0 mi Calm Calm - N/A   Clear
1:58 AM 57.9 °F 51.1 °F 78% 30.06 in 10.0 mi NNW 3.5 mph - N/A   Clear
2:58 AM 57.0 °F 50.0 °F 77% 30.05 in 10.0 mi NNW 3.5 mph - N/A   Clear
3:58 AM 50.0 °F 46.9 °F 89% 30.06 in 10.0 mi Calm Calm - N/A   Clear
4:58 AM 48.0 °F 46.0 °F 93% 30.07 in 10.0 mi Calm Calm - N/A   Clear
5:58 AM 48.0 °F 45.0 °F 89% 30.10 in 10.0 mi Calm Calm - N/A   Clear
6:58 AM 46.0 °F 43.0 °F 89% 30.11 in 9.0 mi Calm Calm - N/A   Clear
7:58 AM 57.9 °F 48.0 °F 70% 30.14 in 10.0 mi NE 3.5 mph - N/A   Clear
8:58 AM 63.0 °F 48.0 °F 58% 30.15 in 10.0 mi ENE 9.2 mph - N/A   Clear
9:58 AM 68.0 °F 48.0 °F 49% 30.16 in 10.0 mi ESE 8.1 mph - N/A   Clear
10:58 AM 73.0 °F 46.0 °F 38% 30.15 in 10.0 mi ESE 6.9 mph - N/A   Clear
11:58 AM 75.9 °F 45.0 °F 33% 30.13 in 10.0 mi Variable 5.8 mph - N/A   Clear
12:58 PM 75.9 °F 44.1 °F 32% 30.12 in 10.0 mi Variable 3.5 mph - N/A   Clear
1:58 PM 79.0 °F 44.1 °F 29% 30.08 in 10.0 mi SSE 5.8 mph - N/A   Clear
2:58 PM 78.1 °F 42.1 °F 28% 30.06 in 10.0 mi Variable 5.8 mph - N/A   Clear
3:58 PM 81.0 °F 43.0 °F 26% 30.04 in 10.0 mi East 3.5 mph - N/A   Clear
4:58 PM 81.0 °F 41.0 °F 24% 30.03 in 10.0 mi Calm Calm - N/A   Clear
5:58 PM 78.1 °F 44.1 °F 30% 30.03 in 10.0 mi South 3.5 mph - N/A   Clear
6:58 PM 72.0 °F 45.0 °F 38% 30.04 in 10.0 mi SSW 9.2 mph - N/A   Clear
8:02 PM - - N/A% - - North - - N/A   Unknown
8:04 PM - - N/A% - - North - - N/A   Unknown
8:58 PM 62.1 °F 48.0 °F 60% 30.08 in 10.0 mi Calm Calm - N/A   Clear
9:58 PM 57.9 °F 51.1 °F 78% 30.09 in 10.0 mi Calm Calm - N/A   Clear
10:58 PM 55.0 °F 48.9 °F 80% 30.08 in 10.0 mi Calm Calm - N/A   Clear
11:58 PM 55.0 °F 48.9 °F 80% 30.07 in 10.0 mi Calm Calm - N/A   Clear